Flag for Syria Weather past 2 weeks in Damascus, Syria

Now
64 °F

Clear.


Feels Like: 64 °F
Forecast: 56 / 96 °F
Wind: No wind

Location: Damascus Int. Airport

Current Time: Sep 3, 2015 at 6:28:31 AM

Latest Report: Sep 3, 2015 at 6:00 AM


Visibility: 10 mi

Pressure: 29.92 "Hg (27.60 "Hg at 689m altitude)

Humidity: 78%

Dew point: 57 °F

Location of DamascusLocation

Historic Weather in Damascus — Graph

°F

Damascus temperature yesterday

Maximum temperature yesterday: 99 °F (at 2:00 PM)
Minimum temperature yesterday: 66 °F (at 7:00 AM)
Average temperature yesterday: 84 °F

Past Weeks' High & Low Weather Summary

 TemperatureHumidityPressure
High106 °F (Aug 19, 3:00 PM)94% (Aug 21, 6:00 AM)29.98 "Hg (Aug 21, 6:00 AM)
Low59 °F (Aug 31, 7:00 AM)11% (Aug 19, 4:00 PM)29.71 "Hg (Aug 23, 3:00 PM)
Average81 °F47%29.86 "Hg
* Reported Aug 19 5:00 AM — Sep 3 5:00 AM, Damascus, Weather by CustomWeather, © 2015

Note: Actual official high and low records may vary slightly from our data, if they occured in-between our weather recording intervals... More about our weather records

Advertising

Damascus weather history for previous 24 hours

 ConditionsComfort  
Time TempWeatherWind HumidityBarometerVisibility
5:00 AM
Thu, Sep 3
68 °FClear.No wind78%29.92 "Hg10 mi
4:00 AM70 °FClear.No wind73%29.92 "Hg10 mi
3:00 AM72 °FClear.No wind69%29.92 "Hg10 mi
2:00 AM73 °FClear.No wind57%29.92 "Hg10 mi
1:00 AM75 °FClear.No wind54%29.92 "Hg10 mi
12:00 AM77 °FClear.2 mph39%29.95 "Hg10 mi
11:00 PM
Wed, Sep 2
79 °FPleasantly warm.N/A39%29.92 "HgN/A
10:00 PM82 °FClear.2 mph40%29.92 "Hg10 mi
9:00 PM86 °FClear.5 mph38%29.92 "Hg10 mi
8:00 PM88 °FClear.5 mph24%29.89 "Hg10 mi
7:00 PM93 °FSunny.9 mph17%29.86 "Hg10 mi
6:00 PM97 °FSunny.No wind17%29.86 "Hg10 mi
5:00 PM99 °FSunny.No wind19%29.86 "Hg10 mi
4:00 PM99 °FSunny.No wind18%29.89 "Hg10 mi
3:00 PM99 °FSunny.No wind22%29.89 "Hg10 mi
2:00 PM99 °FSunny.No wind19%29.92 "Hg10 mi
1:00 PM95 °FSunny.9 mph26%29.92 "Hg10 mi
12:00 PM93 °FSunny.No wind30%29.95 "Hg10 mi
11:00 AM90 °FSunny.No wind41%29.95 "Hg10 mi
10:00 AM84 °FSunny.No wind48%29.98 "Hg10 mi
9:00 AM77 °FSunny.5 mph65%29.95 "Hg10 mi
8:00 AM73 °FSunny.6 mph69%29.95 "Hg10 mi
7:00 AM66 °FClear.6 mph83%29.95 "Hg10 mi
6:00 AM70 °FClear.7 mph83%29.95 "Hg10 mi
Weather by CustomWeather, © 2015

See weather overviewHow to use our weather pages